User: anonymous   Login
Location: Unspecified
(0.0000°N, 0.0000°E)
Time: 09:40:43
(UTC+00:00)
Language:

EUCROPIS - Orbit

View from above orbital plane
View from above orbital plane
View from above satellite
View from above satellite

Ground track
Ground track

The orbit data is extracted from the following two-line orbital elements,

1 43807U 18099BB  24063.64978515  .00006002  00000-0  44827-3 0  9995
2 43807  97.5392 125.1614 0007367 303.4323  56.6198 15.03155375286185
Epoch (UTC): 03 March 2024 15:35:41
Eccentricity: 0.0007367
inclination: 97.5392°
perigee height: 552 km
apogee height: 562 km
right ascension of ascending node: 125.1614°
argument of perigee: 303.4323°
revolutions per day: 15.03155375
mean anomaly at epoch: 56.6198°
orbit number at epoch: 28618

The dashed part of the orbit path shows where the satellite is in the earth's shadow,  

DLR